GFSSE_500_spd_000.txt.gz
Wind_Speed
17 16 15 18 19 20 21 20 21 22 21 21 23 23 24 22 20 17 16 14 13 11 9 6 6 11 13 13 13 12 13 13 11 9 8 8 8 7 7 6 4 3 6
13 14 15 18 19 20 20 22 22 21 19 20 21 22 24 24 25 20 18 16 15 13 11 10 9 8 11 14 14 14 15 15 14 10 9 7 8 8 8 6 4 4 6
9 12 15 16 18 18 18 20 21 21 20 21 23 25 27 28 26 22 23 20 17 15 14 13 11 12 11 10 15 16 17 18 17 13 10 9 9 9 10 9 4 3 5
7 11 13 16 19 19 19 19 19 19 21 21 24 25 27 27 27 24 20 20 20 20 18 16 15 14 15 15 15 17 19 20 21 18 14 12 11 11 11 9 7 4 4
8 8 10 14 18 20 20 19 17 18 20 21 22 23 25 28 28 25 25 23 22 20 21 19 18 19 18 17 17 18 20 22 24 24 20 16 12 13 13 12 10 7 4
7 9 11 16 22 24 23 19 17 16 17 19 20 22 25 25 27 29 27 24 22 21 22 24 23 23 21 21 19 20 21 23 26 28 26 22 17 17 14 14 13 9 7
6 9 12 19 23 24 24 23 20 17 17 19 21 22 24 25 27 29 30 26 25 23 26 26 25 25 24 23 20 21 22 24 28 31 32 29 25 22 19 16 14 12 9
4 9 15 20 22 21 23 23 23 22 22 23 24 25 26 27 29 28 30 30 27 27 27 28 29 28 27 25 22 22 24 28 33 35 36 35 33 28 23 20 16 15 13
9 13 18 22 22 20 21 22 21 20 21 21 23 25 28 31 31 32 32 32 30 29 29 29 30 29 28 25 26 26 27 28 30 36 41 39 36 34 28 25 21 19 17
13 18 21 21 21 23 23 21 21 22 23 24 26 27 29 29 30 29 31 32 31 30 32 31 33 33 31 30 29 30 30 29 32 31 36 39 39 36 31 28 24 23 21
19 22 22 25 27 27 26 25 23 23 24 25 27 29 29 28 29 30 30 31 33 34 34 35 36 36 36 32 33 31 33 32 31 32 31 41 46 41 34 31 27 26 26
24 26 26 29 30 30 29 27 26 26 25 24 25 24 24 25 29 30 31 31 33 36 38 38 39 40 41 38 34 35 35 34 33 34 32 32 38 40 34 32 29 27 28
26 27 29 31 31 32 31 29 29 30 26 24 23 24 26 27 29 31 33 35 36 38 39 41 42 42 43 44 40 34 36 37 34 34 32 32 33 31 33 31 31 30 30
28 30 32 32 32 32 32 31 31 29 25 24 25 26 27 28 32 35 37 38 41 42 43 43 43 45 46 45 45 40 38 40 37 32 29 29 28 30 27 33 34 33 32
30 33 34 34 35 34 33 33 32 29 26 26 29 30 31 34 38 42 42 41 41 42 43 43 44 45 47 47 45 45 43 42 40 38 32 29 29 25 30 34 35 34 34
33 35 35 36 36 35 35 34 31 27 25 28 32 33 36 39 42 43 43 42 41 40 40 41 43 45 46 48 49 47 48 46 47 41 41 36 34 32 23 30 38 36 36
34 35 36 36 36 36 37 35 31 27 28 32 35 37 39 43 44 43 42 40 39 40 41 42 43 46 49 51 52 54 51 49 51 50 46 42 41 38 33 27 30 40 40
36 34 35 37 37 38 39 36 33 30 31 35 38 40 45 45 43 42 43 42 40 41 42 44 47 50 51 52 54 55 54 55 52 53 52 49 44 43 41 34 32 35 45
36 36 37 38 38 39 41 38 34 33 36 39 42 45 48 46 44 46 46 46 46 47 49 50 51 52 55 59 60 59 59 60 56 54 54 52 51 46 44 42 35 34 40
38 39 39 39 40 41 42 37 36 37 40 43 46 49 49 49 50 51 51 51 53 54 56 57 57 60 60 62 65 68 69 67 66 61 62 61 55 54 47 44 40 33 32
41 42 42 42 41 42 41 38 38 40 44 48 49 50 50 53 54 55 56 58 58 57 60 62 64 65 67 71 74 76 77 81 78 73 67 67 62 58 57 48 43 35 34
43 43 43 42 42 42 40 40 42 45 48 50 52 51 53 55 56 57 60 62 63 65 68 69 73 78 81 86 90 94 91 87 88 85 79 73 71 64 61 58 48 42 38
44 43 43 43 42 41 41 43 46 49 49 53 54 52 57 58 59 62 65 68 70 72 76 80 85 91 95 97 99 105 104 100 97 93 89 82 76 73 65 64 54 46 45
44 42 42 43 42 41 43 45 48 49 51 55 53 56 59 62 64 66 69 72 75 79 85 91 97 102 107 106 99 95 95 98 105 101 96 91 85 79 71 69 59 51 45
41 39 42 42 43 44 46 47 48 51 54 54 54 59 63 64 67 70 72 75 79 88 96 102 106 106 93 84 76 74 74 75 74 75 92 97 91 84 75 73 66 58 50
38 40 42 44 43 44 45 47 50 53 54 54 58 63 64 67 70 71 75 79 89 97 105 108 99 88 81 76 66 61 57 56 62 63 65 81 94 88 83 80 71 63 57

GFSSE_500_spd_003.txt.gz
Wind_Speed
14 15 15 16 17 17 18 20 20 19 20 21 22 26 25 24 23 24 20 17 16 14 12 8 5 7 9 10 12 15 15 15 15 15 13 11 10 9 9 8 7 5 7
12 15 15 16 15 16 17 17 16 17 18 19 21 24 26 25 23 22 21 20 17 15 12 11 9 7 9 10 13 15 17 16 16 17 15 13 12 11 12 10 7 7 7
6 13 15 16 16 17 17 17 15 15 15 17 18 19 22 25 24 21 20 22 21 19 16 14 11 10 11 11 12 14 16 18 18 18 17 15 14 12 13 13 9 7 7
8 9 11 15 18 20 20 19 16 15 14 15 16 18 19 21 23 23 22 19 18 20 20 21 20 16 14 14 14 14 15 17 18 20 20 19 18 16 14 13 10 8 6
5 6 7 12 16 21 21 20 16 13 14 15 16 17 18 19 20 22 23 23 20 19 18 19 20 20 20 18 13 14 15 16 17 19 23 24 23 19 16 15 13 11 7
3 5 9 13 17 22 22 24 23 17 14 16 17 18 20 21 21 22 21 23 22 21 20 21 22 21 21 20 20 14 14 17 18 19 23 27 27 25 22 18 15 14 11
2 4 8 14 20 22 24 27 27 23 17 17 17 19 21 23 24 24 24 24 23 22 22 21 21 23 22 21 21 19 18 19 17 19 23 28 31 31 28 24 19 15 14
3 6 11 16 21 23 25 27 26 22 19 18 19 20 22 23 24 24 23 24 24 23 25 24 23 23 24 23 23 25 26 25 23 21 20 23 27 37 35 31 24 19 16
7 10 14 20 23 25 27 27 26 24 22 20 20 21 23 25 24 23 23 24 25 26 25 26 26 26 25 26 25 26 29 29 28 28 26 23 22 30 40 38 31 24 20
13 14 19 23 25 26 27 28 28 25 22 23 23 24 23 21 19 20 23 25 26 26 28 28 29 30 30 28 28 28 28 30 31 29 32 33 35 31 31 43 39 31 25
18 19 22 25 27 28 28 29 26 24 25 26 25 23 18 16 19 20 21 23 25 27 29 31 33 33 33 32 31 31 29 29 31 31 34 35 35 31 29 39 45 38 29
21 24 26 26 28 30 30 30 27 26 27 27 26 22 19 20 21 22 25 26 29 31 32 33 34 35 36 34 34 32 31 30 29 30 31 34 33 33 33 32 35 40 32
26 27 26 27 30 32 32 30 28 27 28 28 25 22 22 23 23 26 30 34 35 35 36 35 34 33 34 34 35 35 35 32 31 31 31 33 34 31 32 31 30 37 33
27 25 27 30 32 32 31 30 28 28 28 28 25 24 23 24 25 29 33 35 37 38 37 36 36 34 33 32 33 34 34 34 33 33 33 34 35 34 28 19 12 32 31
26 27 29 32 33 32 31 30 29 29 28 28 26 26 27 28 30 32 36 38 38 36 34 33 34 35 35 35 34 34 37 37 36 37 40 39 38 36 33 27 18 22 36
27 29 31 32 32 32 32 32 32 32 31 29 28 29 29 31 33 35 40 39 37 35 34 36 35 36 37 38 40 40 39 40 39 38 38 39 37 39 38 34 27 20 24
29 30 31 31 32 33 33 33 34 35 34 30 29 30 31 33 35 39 40 38 37 38 40 41 42 41 42 42 42 44 43 43 45 44 43 44 44 41 41 40 34 28 24
28 30 32 33 34 35 34 35 36 36 34 31 31 32 33 36 38 41 41 40 41 43 44 45 46 47 49 50 51 50 50 49 46 48 48 48 48 46 45 41 40 36 31
28 32 33 36 36 37 36 37 37 38 35 34 34 36 37 39 41 45 45 45 47 48 48 48 49 50 52 54 54 56 57 55 55 54 54 53 51 52 48 46 43 40 37
30 32 35 37 39 40 39 39 38 38 37 36 37 39 40 41 46 49 48 50 51 52 52 52 55 57 59 61 63 63 63 62 62 64 63 61 59 58 54 52 49 45 40
35 35 37 40 43 42 41 39 39 39 38 39 40 41 42 46 51 51 51 52 55 54 54 57 60 62 65 66 68 71 75 77 79 78 76 72 68 66 64 60 56 53 46
38 39 42 44 43 43 42 40 40 40 41 42 42 43 46 50 53 52 53 57 56 57 61 64 66 68 70 76 83 88 90 90 93 93 93 91 85 80 75 71 67 60 55
40 42 45 46 46 44 43 41 42 42 43 43 44 46 50 53 52 53 57 58 59 63 66 68 71 74 81 91 99 106 110 113 109 106 105 104 98 91 84 80 76 66 61
43 44 47 46 45 44 42 43 41 42 42 44 47 50 53 52 53 56 58 60 64 67 69 72 77 86 95 104 110 106 99 94 90 84 81 83 92 99 96 85 83 74 67
45 47 46 47 45 43 41 41 40 42 45 48 50 51 52 53 55 58 60 64 67 69 72 79 87 96 105 107 102 85 77 72 71 71 65 67 78 81 93 93 89 81 73
47 47 45 45 44 41 40 40 42 46 48 47 49 51 51 52 56 58 63 67 68 71 78 87 95 106 97 97 80 76 68 60 51 52 53 52 63 71 79 94 95 85 76

GFSSE_500_spd_006.txt.gz
Wind_Speed
11 14 16 17 17 17 16 15 13 13 15 17 18 20 22 21 19 20 20 18 15 12 10 8 7 6 7 7 8 10 13 15 15 15 15 14 15 14 13 11 10 10 8
10 12 14 15 16 16 17 16 14 13 13 13 14 16 18 20 19 17 17 19 21 21 17 13 10 9 8 7 9 10 12 14 14 14 16 16 15 16 16 14 11 11 10
6 11 12 13 17 18 18 18 15 13 12 12 13 14 16 17 18 18 16 13 13 15 17 18 18 16 12 8 8 9 12 14 15 14 14 17 15 15 17 14 12 13 11
4 5 6 9 13 17 18 19 19 17 15 14 14 15 15 15 16 17 17 17 15 14 14 14 14 15 15 17 11 8 9 11 14 16 16 18 19 17 16 14 13 13 12
2 1 4 8 13 17 17 20 21 23 17 14 13 14 16 16 15 16 15 16 16 16 17 16 15 15 15 14 15 14 10 12 12 14 17 19 21 21 21 17 14 15 15
3 3 5 9 15 18 20 22 24 24 21 16 16 16 16 18 17 16 16 16 16 16 16 16 17 17 16 15 14 14 15 16 16 13 15 18 22 24 23 23 20 15 16
8 8 9 11 16 20 21 24 25 25 22 19 18 19 20 21 20 19 17 17 18 18 17 19 18 18 20 18 16 16 18 18 19 17 16 17 20 24 24 26 25 21 18
9 8 9 13 18 21 23 24 25 25 23 21 20 20 22 22 21 16 16 17 18 18 18 18 19 20 21 23 23 22 21 22 21 21 20 21 21 18 21 24 29 30 24
11 10 12 16 21 23 24 25 25 25 23 21 22 24 24 22 20 17 16 17 18 19 20 21 22 22 23 24 24 24 25 24 24 22 21 21 24 23 21 22 25 32 32
17 16 16 19 23 25 25 26 27 26 24 23 24 24 24 19 14 15 17 18 19 20 22 24 25 26 25 25 24 25 25 25 25 25 24 23 24 25 25 20 21 21 35
21 20 20 23 25 25 26 27 28 27 26 26 26 27 25 18 15 17 18 21 24 25 26 26 27 27 26 27 24 23 23 23 26 26 26 24 23 27 28 27 23 23 26
24 23 23 26 24 25 27 28 28 28 27 27 28 29 28 21 19 19 21 24 27 28 28 29 28 27 27 26 25 25 25 23 23 25 25 26 26 26 29 29 29 31 27
27 26 26 25 24 27 29 29 28 28 27 27 29 30 28 23 21 21 23 25 27 29 32 32 28 25 25 25 26 26 26 27 26 26 28 28 27 27 29 33 32 31 21
29 30 26 24 26 28 29 29 28 28 27 27 29 30 29 24 23 25 27 28 29 32 33 31 29 28 27 27 28 29 28 28 29 30 30 32 32 31 30 31 30 22 14
29 29 26 26 27 28 29 29 30 29 29 29 30 31 30 27 26 28 30 31 31 33 33 31 30 33 34 36 33 32 32 32 33 33 32 33 36 34 31 29 29 24 20
32 29 28 27 27 28 30 30 31 31 31 31 32 33 30 29 29 31 32 32 34 35 35 34 35 37 38 39 39 38 38 38 39 38 37 36 36 37 36 34 32 30 27
33 29 30 28 28 29 31 33 34 34 33 32 33 33 32 32 32 33 33 34 34 37 38 38 39 41 41 42 42 44 45 46 47 48 46 44 42 39 40 41 40 38 32
34 32 31 30 29 30 32 35 36 37 36 34 35 35 33 33 34 36 35 35 38 41 42 41 42 42 43 43 44 46 49 51 52 52 53 54 50 48 44 44 44 45 40
35 34 32 30 29 31 35 37 38 39 38 36 36 36 34 35 36 36 36 39 42 44 43 43 43 45 45 45 47 50 52 55 56 57 59 60 59 56 54 51 48 47 47
35 36 35 32 31 34 37 39 40 41 40 37 38 37 37 37 38 38 39 42 45 46 46 47 48 49 50 52 56 58 58 59 61 62 64 65 65 64 61 60 57 53 50
36 38 38 35 35 37 40 43 43 43 42 39 40 39 39 38 38 41 43 45 47 48 50 51 53 53 56 61 63 63 64 65 68 73 77 80 82 81 76 69 67 62 57
38 40 41 38 38 41 43 46 46 45 43 41 41 41 40 40 43 44 46 47 49 50 52 55 56 59 64 66 68 69 74 76 82 90 97 99 102 98 93 89 80 72 66
39 42 43 40 41 43 46 48 47 45 42 42 41 41 41 44 45 46 47 49 50 52 54 57 62 64 66 69 73 81 87 94 98 106 109 104 102 106 108 106 97 85 76
41 42 42 42 43 46 48 48 47 44 42 42 41 43 45 46 46 47 48 50 51 53 57 62 65 67 70 72 81 90 101 109 104 100 86 79 78 78 88 96 101 98 86
39 41 42 41 45 48 47 46 44 42 42 42 43 46 46 46 48 49 49 49 51 55 60 65 67 68 73 78 90 97 99 91 98 85 59 44 51 63 67 81 91 92 96
38 41 40 44 47 45 45 43 42 42 41 43 45 46 46 47 48 49 48 50 53 57 64 66 68 71 77 87 96 92 85 91 69 47 38 27 30 33 56 64 80 91 95

GFSSE_500_spd_009.txt.gz
Wind_Speed
11 11 13 14 16 17 16 16 15 14 14 14 15 17 18 19 19 16 17 19 20 16 11 9 8 7 8 8 9 9 11 11 12 11 11 11 10 11 12 12 12 11 8
10 10 12 15 16 17 18 18 17 16 15 15 14 15 16 16 17 17 13 12 13 15 16 17 15 13 8 6 7 8 8 9 11 12 12 12 11 11 12 12 10 9 9
6 5 7 12 15 17 18 18 19 20 17 14 15 14 13 13 14 15 15 15 14 13 12 12 12 13 13 15 8 6 8 9 10 11 12 13 13 13 13 12 11 8 9
3 2 5 10 13 15 17 19 21 22 20 17 15 16 16 15 14 14 13 12 12 12 12 12 11 11 12 13 14 14 9 10 11 13 13 13 15 15 15 13 10 10 10
4 4 5 7 11 14 17 20 22 23 21 18 16 16 17 19 17 16 15 15 14 14 13 13 12 12 11 11 12 12 13 13 15 14 12 12 15 16 16 18 16 13 13
6 7 8 9 11 15 19 21 24 24 22 19 17 18 19 20 20 18 15 14 14 16 16 16 15 15 15 12 12 12 11 12 13 14 14 14 15 14 16 18 19 19 17
9 10 10 12 13 17 20 22 24 23 23 21 19 18 19 21 20 18 15 13 14 14 15 15 17 18 19 19 16 15 14 14 16 15 15 15 16 17 14 13 17 19 22
12 13 14 15 15 19 22 23 24 23 24 22 22 23 23 23 22 16 11 11 13 15 16 17 18 19 20 21 21 19 17 16 15 15 17 16 18 18 16 15 14 17 22
17 18 18 17 18 22 24 25 24 25 26 24 23 24 25 23 22 17 13 14 14 15 18 20 21 20 20 19 19 19 17 17 16 16 15 16 18 20 21 20 15 14 15
21 21 21 20 21 24 25 25 25 26 26 25 25 26 27 24 20 15 14 16 17 19 21 21 21 22 22 21 19 18 16 15 15 17 17 16 18 20 20 22 23 18 20
24 24 23 22 22 25 25 25 27 27 26 25 25 27 28 27 20 15 16 17 19 21 21 22 24 25 24 22 21 20 18 17 16 15 16 18 19 22 22 22 25 22 22
28 28 26 24 25 26 24 26 27 27 26 27 27 27 28 28 23 18 19 20 22 22 23 23 25 25 23 22 22 22 23 22 21 20 19 19 19 21 24 26 26 28 25
31 31 29 27 27 25 24 25 27 27 27 27 27 27 29 30 26 21 22 24 25 26 26 26 26 27 24 24 24 26 27 27 26 25 25 24 23 24 25 27 28 28 25
32 33 32 30 26 25 25 25 26 27 28 28 28 29 29 30 28 24 24 26 28 28 28 28 28 28 27 27 28 31 31 31 31 30 29 29 29 27 27 30 30 28 26
33 36 35 31 28 26 25 26 26 27 29 30 30 31 30 30 29 27 27 28 29 31 30 29 29 31 32 32 33 34 33 33 33 34 35 34 34 33 30 33 34 32 29
39 39 38 35 31 28 26 27 28 28 30 32 33 33 32 31 31 29 30 31 32 33 32 31 33 34 35 35 36 36 36 37 37 37 38 40 40 41 40 36 37 36 35
40 41 40 38 33 30 28 28 28 29 30 34 35 34 34 33 32 31 31 33 34 34 33 34 36 37 36 38 38 38 39 40 40 41 43 44 46 46 45 45 43 41 39
41 40 41 39 36 33 30 29 30 30 32 34 37 36 36 34 34 33 33 35 36 35 35 37 39 37 38 38 38 40 41 43 44 45 48 50 51 52 53 51 49 48 46
41 41 43 42 39 37 33 32 33 33 35 36 38 39 37 36 37 36 36 37 37 37 39 41 40 39 39 41 42 44 47 49 52 55 56 56 57 57 58 57 58 56 54
39 39 41 41 41 40 37 36 36 37 38 40 41 40 38 38 39 38 38 37 37 41 42 41 41 41 42 44 45 47 49 53 56 56 56 58 59 61 63 64 65 63 62
38 38 41 42 43 43 41 39 39 40 42 43 43 42 39 39 41 41 39 40 42 43 43 42 42 44 46 48 50 52 54 58 59 62 64 66 72 77 79 79 78 77 72
39 40 42 43 45 44 42 42 42 44 45 46 45 43 40 40 42 42 42 43 43 44 44 44 45 47 49 53 55 57 60 63 64 67 70 77 83 89 96 101 100 98 92
40 40 42 44 44 44 43 44 44 46 46 47 46 43 41 41 43 43 43 44 44 45 45 47 47 50 53 56 61 65 66 67 68 70 78 89 98 106 105 103 102 101 101
40 43 44 43 42 44 45 45 45 47 47 48 44 42 41 42 44 44 44 45 45 45 47 47 50 53 56 60 66 69 71 73 79 79 84 99 95 94 89 77 72 74 88
45 44 44 42 41 46 46 45 46 48 48 46 42 41 41 42 44 45 45 45 46 46 47 50 53 56 58 65 68 70 72 77 85 93 99 78 84 63 56 56 57 54 64
41 41 40 38 41 44 44 45 48 48 47 43 41 41 41 42 44 45 46 46 47 48 49 52 54 58 63 66 69 72 76 81 91 98 87 78 66 40 44 50 52 49 49

GFSSE_500_spd_015.txt.gz
Wind_Speed
9 10 11 13 16 18 21 23 27 26 21 19 17 16 16 18 18 18 18 17 14 12 13 13 14 15 13 8 7 6 5 5 3 2 1 3 4 4 5 5 6 6 6
6 8 10 11 14 15 18 21 25 26 22 19 17 16 15 14 15 15 14 14 14 12 11 11 11 12 13 15 13 9 8 7 7 5 3 4 5 6 6 6 6 6 5
4 6 8 11 13 15 17 20 23 24 21 19 17 17 15 15 15 15 14 12 10 11 10 9 8 9 9 11 11 11 10 10 9 6 3 4 5 7 8 9 8 5 5
3 4 6 9 13 14 17 20 22 23 21 19 16 15 16 18 18 16 13 10 9 9 10 8 8 7 8 8 8 8 8 7 7 6 5 5 5 6 8 10 10 9 9
5 5 7 10 14 16 18 19 21 22 21 20 17 14 16 17 18 19 17 10 6 8 8 8 8 7 5 5 5 6 6 7 7 6 5 5 6 8 8 10 9 12 13
7 7 9 12 14 16 17 19 21 22 21 21 17 15 15 17 18 17 17 10 4 6 7 9 10 9 8 4 2 2 2 3 4 5 5 6 6 7 9 10 9 8 12
10 10 11 14 16 19 20 20 22 22 22 21 17 15 16 16 18 19 15 8 5 6 8 11 12 12 11 9 6 4 3 3 3 3 5 7 8 8 8 10 12 15 13
14 14 14 16 17 20 22 22 22 22 22 21 17 16 16 16 17 18 18 9 8 8 10 13 14 12 11 11 9 8 6 5 5 6 6 6 8 8 9 10 11 14 13
18 18 19 19 19 21 22 23 23 22 22 20 18 17 17 17 16 17 18 14 11 11 12 14 15 14 12 11 10 10 8 6 6 7 8 7 9 10 10 11 12 13 14
22 22 23 21 22 23 25 24 24 21 21 20 18 18 17 17 17 16 16 16 15 14 14 15 17 17 14 13 13 9 8 9 9 10 12 11 11 13 12 12 13 13 13
25 26 26 25 26 27 26 25 24 22 21 20 19 19 19 19 19 18 16 15 15 17 18 18 18 19 18 15 14 12 11 11 12 12 14 15 15 15 16 16 15 15 15
26 28 28 29 30 30 29 25 25 24 22 21 20 20 20 21 22 21 19 16 15 16 18 20 21 21 20 18 16 15 15 16 17 18 17 16 18 18 19 19 19 20 18
27 29 32 32 32 31 31 27 26 25 24 23 22 21 21 21 23 24 23 20 18 17 18 20 21 22 21 20 19 18 19 21 21 21 20 19 18 20 21 22 21 21 22
28 32 32 32 34 35 33 30 28 27 27 26 25 23 21 21 22 23 24 23 22 21 21 21 22 23 24 24 23 23 23 24 23 23 22 20 20 21 21 22 23 25 25
29 33 33 34 36 38 37 35 32 30 30 29 28 26 23 21 22 23 24 24 24 23 23 23 24 25 26 26 25 26 27 27 26 25 23 23 23 23 23 24 25 26 26
33 34 36 36 38 39 39 38 37 35 33 32 31 29 27 24 24 24 25 26 26 25 25 25 27 27 28 28 29 30 31 30 28 27 27 26 26 26 27 28 29 30 32
34 36 37 38 38 38 39 40 41 40 35 34 34 33 31 29 28 28 28 28 28 28 28 28 28 29 30 29 30 33 34 31 31 31 30 30 29 30 31 32 33 35 37
37 38 41 39 39 40 40 41 42 40 38 36 37 37 35 34 33 32 31 31 31 30 30 30 30 30 31 32 35 36 34 32 32 33 33 34 33 34 35 36 38 40 41
39 41 41 41 40 41 42 42 42 41 40 40 41 40 37 38 37 36 34 34 33 32 31 32 32 31 32 35 37 36 34 34 34 35 36 36 37 38 39 40 41 44 46
42 41 42 41 39 39 41 42 42 42 43 43 44 41 40 41 40 39 38 36 36 34 33 33 33 34 35 34 35 36 35 34 36 37 38 40 41 42 43 46 47 49 49
46 45 45 45 42 43 42 43 43 45 46 45 44 42 41 42 41 41 40 39 38 36 34 34 35 35 34 33 34 36 36 36 38 40 42 43 45 46 48 51 54 55 56
50 49 48 46 44 44 45 45 46 48 47 46 44 42 45 43 41 43 41 40 39 38 35 35 35 36 35 34 35 36 36 38 40 42 45 46 48 50 53 56 57 59 60
54 53 51 51 48 47 49 48 48 48 46 46 44 46 46 41 41 43 41 41 41 39 36 35 35 36 36 36 36 37 37 39 40 41 45 48 50 53 56 59 63 65 67
55 56 55 52 50 50 50 49 49 48 48 47 47 48 44 40 43 42 41 42 42 39 37 37 36 36 38 38 37 38 41 42 44 44 44 49 52 56 60 64 67 71 77
57 58 57 56 54 53 52 52 50 48 47 48 49 47 43 42 43 41 43 44 43 39 38 38 37 38 38 38 39 41 43 45 48 50 51 51 55 60 63 67 70 77 82
54 56 58 58 53 51 50 51 47 45 46 49 48 46 44 41 43 42 44 44 42 39 39 38 39 40 39 38 40 42 44 48 50 51 52 56 59 61 64 70 75 85 92

GFSSE_500_spd_021.txt.gz
Wind_Speed
10 11 13 15 18 20 21 24 23 23 19 18 16 14 15 16 16 17 16 14 13 12 11 10 10 12 12 8 6 5 4 3 3 3 5 4 5 5 5 6 6 7 6
6 8 10 12 15 18 21 22 22 23 20 18 15 13 14 14 15 15 15 13 10 11 12 12 10 9 9 9 8 7 7 6 4 4 5 5 7 7 8 9 9 9 8
4 6 8 10 12 15 18 19 20 21 21 18 15 14 15 15 15 15 14 11 9 9 12 11 10 10 8 6 5 5 6 5 5 5 4 4 6 7 7 8 10 13 12
6 7 8 9 10 12 15 17 18 18 20 17 14 13 14 15 15 16 15 12 7 9 9 10 10 9 9 8 5 7 8 6 5 6 5 6 7 6 6 7 10 15 13
8 9 9 10 9 10 13 16 17 17 17 16 14 13 12 12 15 17 16 13 7 7 8 10 11 10 8 9 9 9 9 8 8 8 6 6 6 6 7 7 10 11 12
10 11 12 11 11 11 12 14 17 18 16 15 13 12 12 12 13 15 17 14 7 7 8 10 12 11 9 9 9 10 9 9 9 9 8 7 5 6 7 8 9 12 11
14 13 14 15 15 14 14 14 16 17 17 14 13 11 11 12 12 14 14 14 9 8 9 10 11 11 11 9 8 9 9 8 6 7 7 6 6 6 8 10 10 12 12
18 17 17 18 18 18 17 16 17 17 16 14 13 11 10 10 12 13 13 13 11 9 10 11 11 11 11 10 9 9 9 8 8 7 8 8 7 7 7 8 9 9 9
20 21 21 21 21 20 21 20 18 18 18 16 14 12 11 10 11 12 13 13 11 10 10 11 11 11 11 11 12 10 10 10 10 9 11 11 12 10 9 9 9 9 9
23 24 24 24 25 23 23 22 22 20 18 17 16 14 12 11 11 11 13 14 13 11 10 11 12 12 12 13 13 14 13 12 13 12 13 13 14 14 13 13 11 10 10
24 26 27 26 27 26 25 24 24 23 21 19 18 17 16 14 14 13 13 13 13 13 13 13 13 14 14 15 15 15 15 15 13 14 16 16 16 15 15 15 15 14 14
25 26 28 27 27 28 26 27 26 27 25 22 21 20 19 17 16 16 15 13 13 13 13 14 14 15 17 17 18 17 18 18 18 17 18 18 19 18 17 17 17 17 15
27 26 28 28 28 28 28 29 28 29 28 26 24 23 22 21 20 18 17 16 14 14 14 15 15 15 16 18 19 20 20 21 21 20 21 20 20 20 20 19 19 19 19
29 29 30 30 29 31 29 30 30 32 31 29 28 26 26 25 23 22 20 19 18 16 15 16 17 18 18 18 20 21 22 23 22 22 23 22 23 23 22 21 21 21 21
32 33 33 34 33 33 32 33 33 34 34 33 32 30 30 29 28 26 25 24 24 22 20 18 18 19 21 22 22 23 23 24 24 24 24 24 25 25 24 24 24 24 23
35 35 36 34 36 35 35 35 36 37 36 36 36 35 34 33 31 31 29 29 28 28 26 23 22 22 23 25 25 26 26 26 26 27 27 28 28 26 26 26 26 26 27
36 38 38 36 39 39 38 38 39 38 38 39 40 39 38 37 36 35 34 33 32 32 32 30 27 26 26 26 27 28 28 28 29 30 30 30 29 28 28 28 28 28 29
40 44 44 41 42 43 43 42 41 42 41 41 42 41 40 40 40 39 39 36 36 36 35 35 32 31 29 29 29 30 30 30 30 31 31 30 29 30 30 30 30 31 31
45 46 49 47 47 46 47 46 45 45 44 43 43 42 42 42 43 42 43 40 39 39 38 38 35 35 32 32 31 31 32 32 32 30 30 31 30 31 30 32 32 32 34
47 49 51 52 50 49 52 52 50 48 46 46 46 44 44 45 45 45 45 42 41 41 40 40 37 37 35 34 34 33 33 33 33 32 32 32 33 33 32 32 34 35 37
49 54 55 55 55 53 54 54 51 50 50 49 48 48 47 47 47 46 45 44 44 43 41 41 39 39 37 36 35 35 34 34 33 33 34 34 34 33 33 34 36 37 38
47 50 54 55 57 59 56 57 56 56 55 52 50 50 49 48 49 48 47 47 47 44 43 42 41 41 38 37 37 36 36 35 35 35 36 35 34 32 35 36 37 38 39
42 45 49 53 55 57 58 57 59 59 58 55 51 52 51 51 51 50 50 49 47 44 45 43 42 42 40 38 38 38 37 38 36 37 37 36 35 35 37 37 39 40 41
52 48 47 48 53 57 59 59 60 58 57 56 55 54 54 53 52 51 50 49 48 47 46 44 43 43 42 39 39 38 38 39 38 38 38 38 39 39 39 40 42 43 44
64 61 58 56 54 56 59 61 60 58 59 57 57 57 58 55 53 52 51 49 49 49 46 44 43 44 43 41 39 38 39 40 40 39 38 40 40 42 43 44 45 46 47
73 72 71 67 64 64 63 62 62 60 61 61 58 56 58 58 58 56 54 51 50 48 46 44 44 44 43 43 40 39 39 40 41 41 40 40 41 44 46 46 48 49 50

GFSSE_500_spd_024.txt.gz
Wind_Speed
10 12 13 16 17 19 21 22 23 22 19 17 17 18 18 17 17 17 17 14 13 15 16 14 13 12 12 13 11 9 9 8 7 6 6 6 5 5 6 7 7 8 9
6 8 10 12 14 17 20 21 22 23 20 17 15 16 17 17 16 17 17 13 11 14 15 15 14 12 11 10 8 8 8 9 9 8 7 6 7 7 7 6 7 10 12
4 6 8 10 12 15 17 19 20 21 21 19 17 16 16 16 16 17 16 13 11 11 13 14 14 14 12 9 6 7 9 9 8 9 8 8 7 7 7 7 8 8 14
4 6 7 8 11 12 14 16 18 18 18 18 17 17 16 15 16 17 16 13 9 10 11 12 13 12 11 11 8 9 10 9 8 9 9 8 8 8 9 8 9 9 10
6 7 8 10 10 12 13 14 16 17 16 16 16 16 15 14 15 17 16 13 9 9 10 12 13 12 11 9 11 10 9 10 10 9 9 8 7 8 10 10 10 9 10
9 10 10 11 12 13 13 13 14 15 15 14 14 14 14 13 13 15 15 14 10 8 9 11 12 12 12 9 10 11 9 8 9 9 10 10 9 11 12 11 12 11 8
12 13 12 13 14 15 15 15 14 14 13 14 13 13 13 12 11 12 14 14 13 10 9 10 11 12 12 9 8 9 10 8 6 7 8 9 8 8 9 9 8 9 11
16 15 16 15 16 17 17 17 16 15 14 12 13 12 12 12 12 11 11 13 13 12 10 10 10 11 11 11 9 8 8 10 10 8 7 7 8 8 8 8 8 8 9
19 18 19 17 18 19 18 19 19 16 15 13 12 12 12 12 12 12 12 11 11 11 11 11 10 10 11 12 12 11 11 12 11 11 10 10 10 10 10 10 10 9 7
21 22 19 21 19 20 20 22 21 19 16 15 13 13 12 13 13 13 13 13 12 12 11 11 12 12 12 13 15 15 14 13 10 13 13 13 13 11 11 12 11 11 10
24 23 25 19 23 22 22 22 23 22 20 19 16 15 15 14 15 15 15 15 14 14 14 12 12 13 13 14 14 16 18 16 14 15 16 15 15 14 13 13 14 13 12
27 26 27 26 24 24 24 25 23 23 23 22 22 18 17 17 16 17 16 16 16 15 14 15 14 14 15 15 15 16 17 18 17 21 20 19 18 16 16 16 16 15 14
28 28 30 30 27 27 27 26 26 25 26 25 25 24 21 21 19 20 19 19 18 16 15 14 14 15 15 17 17 18 18 19 19 20 22 23 23 21 19 18 19 19 17
28 29 32 33 32 30 29 27 30 27 29 28 29 28 25 25 24 23 23 22 22 22 20 19 18 17 16 17 18 19 20 21 20 22 22 22 23 24 23 22 21 21 21
29 31 31 34 35 33 33 29 30 30 30 32 30 31 30 29 28 28 26 26 25 25 25 24 24 22 20 20 20 20 22 23 23 22 24 24 24 25 25 24 24 23 23
34 34 33 33 36 36 34 34 32 34 32 35 33 34 35 33 32 32 31 31 30 29 29 28 28 28 26 25 24 24 25 25 25 25 24 25 26 28 28 27 26 26 25
36 39 39 36 34 40 38 36 36 37 36 37 36 37 38 36 35 35 35 34 34 33 32 32 32 32 31 30 29 28 27 27 27 28 27 27 28 28 28 27 27 27 27
41 41 44 44 40 39 46 44 42 39 41 40 40 39 40 39 38 37 37 37 36 37 36 35 35 35 34 33 32 31 29 29 28 29 29 28 27 28 28 28 28 28 29
43 45 46 50 50 45 45 50 48 45 45 45 44 42 42 42 41 40 41 41 39 40 38 37 38 38 36 35 34 32 31 31 30 29 30 30 27 27 29 31 30 29 30
42 44 47 49 54 53 49 53 53 50 48 48 49 47 45 44 44 44 43 43 42 41 40 40 40 39 37 36 37 35 33 32 32 30 30 29 29 30 30 31 33 31 32
38 40 41 43 47 53 51 47 52 54 51 50 51 51 48 46 46 46 45 45 43 43 44 43 43 40 40 37 38 37 35 33 33 32 32 30 29 29 31 32 32 32 33
35 37 38 37 42 45 51 50 47 52 52 51 52 52 49 48 48 49 48 47 46 45 46 45 44 42 41 39 39 39 36 35 35 33 32 32 31 30 30 31 32 34 36
49 51 51 49 46 47 47 47 48 45 51 52 51 52 53 52 52 53 52 49 48 47 46 45 43 44 42 39 41 40 38 36 36 35 34 32 34 32 31 32 34 36 38
59 60 62 60 57 57 56 56 53 51 46 49 51 53 56 54 53 54 54 51 50 49 47 46 45 46 43 40 41 42 40 38 38 35 34 34 35 36 34 34 36 37 39
64 66 68 69 67 66 64 63 64 61 56 52 53 52 55 56 54 55 54 52 51 50 48 47 46 46 45 41 41 43 41 40 39 37 35 35 35 37 37 37 39 40 41
73 74 75 76 73 68 68 64 64 68 67 63 58 55 54 57 58 57 56 54 53 53 52 51 50 47 45 43 42 42 42 42 41 38 36 36 37 39 39 40 41 42 44

GFSSE_500_spd_027.txt.gz
Wind_Speed
10 12 13 15 17 18 20 20 22 22 20 18 18 19 19 18 18 19 17 14 14 15 16 16 16 15 13 12 12 13 13 13 11 9 7 5 4 4 5 4 5 6 7
6 8 10 12 14 15 17 18 19 19 20 19 19 18 18 18 18 18 16 13 12 14 15 15 15 14 13 11 11 11 12 12 12 11 10 8 7 6 3 3 3 5 7
4 6 7 9 11 13 14 16 17 17 18 18 18 18 18 18 18 18 15 12 11 12 14 16 16 14 12 11 9 10 12 11 9 9 9 9 9 7 6 6 4 4 6
2 3 4 6 8 11 13 15 16 16 16 16 17 17 17 17 17 17 16 14 11 11 12 14 15 15 13 11 11 10 10 11 10 10 9 8 8 8 9 8 6 5 2
7 5 6 6 7 10 11 13 14 14 14 14 14 15 15 15 15 16 16 15 12 11 12 12 14 14 15 12 11 11 10 11 12 13 13 12 12 12 11 10 11 9 8
11 10 9 9 9 10 11 11 12 12 12 12 12 13 13 13 13 14 14 15 14 12 11 12 13 13 13 11 11 11 11 10 10 11 10 10 9 10 10 9 11 13 10
13 13 12 12 11 12 11 12 12 11 11 10 10 11 12 12 12 12 12 14 13 13 12 11 11 12 13 10 9 9 9 9 9 7 7 8 8 8 8 8 9 9 10
15 17 15 15 14 14 14 14 13 12 12 11 10 10 11 11 12 12 12 12 13 12 12 12 12 12 13 12 11 10 9 9 9 9 8 8 9 9 7 7 7 7 7
17 20 20 19 17 15 17 16 16 15 13 12 12 10 10 11 12 12 13 12 12 12 12 11 11 12 13 13 13 13 12 11 13 10 8 9 10 10 9 9 8 6 7
18 20 22 24 21 18 18 19 18 18 16 14 13 12 11 12 13 13 13 13 14 13 13 12 11 11 12 12 13 14 13 13 14 14 10 11 12 11 11 10 10 9 8
23 22 23 24 26 22 21 22 22 21 20 18 16 15 14 14 14 14 14 14 14 15 15 14 13 13 13 13 13 13 12 14 16 16 16 16 15 15 13 12 12 11 11
24 25 23 24 25 27 24 24 24 23 23 21 20 19 17 18 17 16 17 16 16 16 16 15 14 14 15 15 15 15 13 14 17 17 17 18 19 19 18 16 15 14 14
24 24 26 25 26 25 28 27 26 26 26 24 25 23 20 21 19 19 19 18 19 18 19 19 18 16 16 16 16 16 14 15 18 18 18 19 19 20 20 20 20 19 18
27 25 29 30 27 26 25 29 29 27 27 27 28 27 23 25 23 23 23 22 22 22 21 22 22 22 20 19 19 18 17 17 19 21 20 20 20 21 21 21 21 21 22
34 31 28 32 32 29 26 27 28 31 30 29 30 30 26 29 27 26 26 26 26 26 24 25 26 25 25 25 23 23 21 19 21 22 22 22 21 21 23 24 24 23 23
36 37 34 31 35 38 32 31 30 30 33 31 32 32 30 32 31 29 29 29 29 29 28 29 30 28 29 29 28 27 27 25 23 25 25 24 24 23 24 25 25 25 25
39 39 39 37 35 38 40 37 35 34 34 34 34 36 35 35 34 32 31 31 32 32 31 32 33 32 31 31 31 30 29 29 25 25 26 26 25 25 24 25 24 24 25
39 43 45 44 41 39 40 43 42 39 39 39 39 39 39 40 39 37 36 35 35 35 35 35 36 34 34 33 32 32 32 31 28 26 27 28 26 26 25 25 24 25 26
37 40 42 43 44 41 40 42 45 45 42 42 43 42 43 44 43 41 40 40 37 37 37 37 37 36 35 35 35 32 33 33 32 28 28 28 28 27 26 26 25 26 27
34 35 37 39 41 43 44 39 40 42 42 43 43 45 45 45 45 43 43 43 41 38 39 38 37 37 37 37 37 34 34 34 34 32 30 30 30 28 27 26 27 27 28
34 34 32 33 34 36 39 43 37 39 44 45 42 43 46 46 46 45 44 45 44 43 43 42 39 39 40 38 38 37 36 34 35 34 32 30 30 30 30 28 28 27 27
36 38 43 46 46 47 48 47 47 42 37 42 44 43 43 46 49 49 49 48 47 47 45 44 43 41 41 39 40 39 38 36 36 36 34 33 31 31 30 31 30 30 29
42 44 47 51 52 51 51 53 56 56 53 46 44 40 41 45 48 50 51 52 51 48 46 46 45 44 44 41 42 42 39 37 38 37 35 35 34 33 32 31 32 32 32
49 50 52 51 54 54 54 56 56 60 62 61 54 51 48 46 46 48 49 52 52 52 50 49 48 48 48 45 45 44 40 38 39 38 37 36 36 36 34 33 34 35 35
53 53 56 57 56 59 61 61 65 63 64 64 66 61 55 52 50 47 47 49 52 52 52 51 48 48 49 48 46 46 42 40 40 39 37 37 37 37 37 36 36 37 37
61 62 64 65 65 66 68 66 66 69 68 69 70 70 63 60 58 52 51 50 51 53 52 52 52 52 50 51 49 47 44 41 42 40 40 38 37 38 38 38 38 39 40

GFSSE_500_spd_033.txt.gz
Wind_Speed
6 7 9 11 13 14 16 17 17 17 17 18 18 19 19 20 21 19 16 15 16 17 18 19 17 15 13 12 12 14 12 12 12 10 9 7 6 6 7 6 5 5 6
3 4 6 7 9 11 13 14 15 15 15 15 16 16 17 18 19 19 17 14 15 16 17 19 19 16 13 12 12 12 12 11 11 10 11 11 10 8 6 6 7 7 7
4 3 3 4 6 8 9 11 12 12 12 12 13 13 13 14 15 16 17 15 15 15 16 16 18 18 15 13 12 13 14 13 12 11 12 13 12 10 9 10 10 10 8
7 6 6 6 7 7 7 8 9 10 11 11 11 10 12 12 12 14 14 15 15 15 15 14 15 16 14 14 14 13 13 13 13 13 13 14 14 13 13 13 11 12 7
11 10 9 8 8 8 7 6 7 8 10 10 10 10 9 10 11 11 12 13 13 14 14 13 13 12 13 10 10 10 9 10 10 10 10 11 12 12 13 14 12 13 10
15 14 13 12 11 10 10 9 8 7 8 10 9 9 9 8 9 10 10 10 11 11 12 12 12 11 10 10 9 8 6 6 7 7 6 7 8 9 9 10 11 11 11
20 18 17 16 15 13 13 13 12 10 8 9 10 10 10 8 7 9 9 9 9 9 9 10 10 10 10 9 9 9 9 8 7 6 5 5 5 7 7 6 7 9 9
21 21 20 19 19 17 16 16 15 14 13 12 11 11 10 10 9 9 9 9 9 9 9 9 9 8 9 10 10 9 10 10 8 8 7 6 6 7 7 8 7 7 8
25 24 23 23 22 22 21 20 19 18 17 16 15 14 14 13 12 11 10 10 10 11 9 8 8 8 9 9 9 11 11 10 10 9 9 8 8 9 9 9 10 10 9
25 26 27 27 26 26 26 24 24 23 22 21 19 18 18 17 15 15 14 13 11 11 12 11 10 8 7 9 10 10 12 11 10 9 11 10 10 12 14 13 12 12 12
22 24 27 29 28 27 27 27 26 27 26 25 24 23 22 22 20 18 17 17 16 15 14 14 13 12 11 9 10 10 11 12 11 11 11 12 12 12 13 15 15 15 14
23 25 27 29 30 29 30 30 29 29 29 29 28 28 27 27 26 24 23 21 21 20 19 18 18 17 16 15 14 13 12 12 12 12 13 13 14 14 15 15 16 17 17
26 27 29 29 30 31 32 32 32 32 32 31 31 30 29 30 30 29 27 26 25 25 25 23 23 22 21 19 20 20 18 17 16 14 14 15 16 17 17 17 17 18 18
26 25 28 30 32 32 32 32 33 33 33 33 33 33 33 33 34 33 31 30 29 29 29 29 28 27 26 25 23 24 24 23 22 21 20 19 19 19 19 20 19 19 19
26 26 26 26 29 31 32 34 35 35 35 35 35 35 35 36 37 36 35 34 33 32 32 32 32 32 30 30 29 28 28 27 26 25 25 24 23 23 22 21 21 21 21
28 30 28 27 29 30 31 30 33 37 38 37 37 37 37 38 39 39 38 38 36 36 35 35 35 35 35 34 34 32 31 31 29 28 27 27 26 25 25 23 22 23 23
28 29 30 30 29 30 32 33 34 35 38 40 42 41 40 40 41 41 40 41 40 39 38 38 38 38 38 38 37 36 34 33 33 32 30 29 28 26 26 26 24 23 24
27 28 30 32 33 32 32 35 35 37 39 42 43 44 43 43 45 45 45 45 45 43 42 42 42 41 41 41 40 38 37 35 34 34 33 32 30 28 27 27 26 25 25
36 37 38 40 42 42 41 40 41 42 41 41 44 46 48 47 47 48 48 49 49 48 47 46 45 45 43 42 42 40 38 37 36 36 35 34 33 32 30 28 28 27 26
44 45 44 44 43 43 44 44 44 45 44 38 38 38 42 48 51 52 52 52 52 51 49 49 49 48 47 46 45 44 41 39 37 37 37 35 35 35 32 31 30 30 28
48 43 39 42 42 43 44 46 46 46 47 44 44 44 44 43 46 50 51 52 53 54 54 53 52 50 50 50 48 46 45 42 40 39 39 37 37 36 36 34 32 32 31
44 44 45 45 46 46 45 50 51 49 53 55 54 54 52 52 49 47 47 47 50 52 53 53 54 53 53 52 51 49 47 43 42 42 40 39 39 38 38 37 35 34 34
46 48 49 51 52 51 53 55 55 55 58 62 61 62 61 58 57 56 54 52 50 50 49 50 51 52 53 54 53 53 50 47 45 44 43 42 41 41 40 40 38 37 35
48 48 51 55 58 59 59 58 59 60 62 64 65 67 67 67 66 63 61 58 57 57 54 53 52 51 52 55 55 53 52 51 48 45 44 45 44 43 43 42 41 39 38
58 56 55 55 55 56 58 60 63 64 66 67 69 70 70 71 74 73 70 68 64 61 60 58 58 57 55 54 53 54 54 53 50 50 47 48 47 46 44 44 43 42 40
61 58 58 59 59 60 64 67 68 70 72 74 77 78 77 78 78 80 81 77 73 68 62 62 60 61 60 58 56 55 54 53 52 52 51 48 46 46 46 45 45 44 43

GFSSE_500_spd_036.txt.gz
Wind_Speed
5 6 8 9 10 11 12 13 14 15 16 16 16 16 17 18 19 18 17 17 17 18 18 19 19 15 14 14 14 13 12 12 11 11 12 10 10 8 7 6 5 6 5
4 4 3 5 7 9 9 10 12 13 12 12 13 13 14 15 16 17 16 16 15 15 16 17 19 16 15 14 14 15 15 13 12 13 13 12 11 11 10 10 9 8 6
6 6 5 4 5 8 8 9 9 10 11 11 10 11 11 12 12 13 14 14 14 14 13 14 15 15 15 15 13 13 14 15 15 15 15 16 15 14 14 13 13 13 8
9 9 8 8 8 8 8 8 8 8 9 10 10 9 10 10 10 10 11 11 12 12 11 11 12 12 11 11 10 9 11 11 11 11 12 12 12 12 12 13 14 14 11
14 12 12 11 11 10 10 9 8 9 9 9 9 9 9 9 8 9 8 8 8 9 9 9 9 9 8 6 6 6 6 7 6 6 7 8 9 10 11 12 12 14 14
16 17 16 16 15 13 14 13 11 10 10 10 9 9 10 10 9 8 8 7 7 6 6 6 7 7 6 6 5 5 5 4 4 4 4 4 6 7 7 8 8 9 9
19 20 20 20 19 18 17 16 16 14 13 12 11 11 11 11 10 10 10 9 8 7 6 5 5 5 5 5 5 5 6 7 6 5 5 5 4 5 6 6 6 6 6
20 20 22 22 22 21 22 20 18 17 17 17 16 15 13 13 12 12 12 11 11 9 8 7 6 6 6 5 6 6 5 5 7 7 6 6 7 7 6 6 7 7 7
20 22 23 24 23 24 25 24 24 22 21 21 21 19 18 17 17 15 15 15 14 13 12 10 8 8 8 7 7 7 6 5 5 6 6 6 7 8 9 9 8 9 9
22 24 24 24 25 26 28 28 28 27 26 26 25 24 23 23 22 21 19 18 18 18 16 15 13 12 11 10 9 9 8 7 7 7 8 7 7 8 9 11 12 11 11
22 26 27 26 25 26 28 30 30 29 30 30 30 29 27 26 26 25 25 23 22 21 21 19 18 16 15 15 13 12 11 9 9 9 9 9 9 10 9 11 12 12 14
19 21 24 27 28 29 29 30 31 31 31 31 32 33 32 31 29 29 29 28 27 25 25 25 22 21 20 19 20 18 17 15 14 12 12 12 11 11 12 12 13 13 13
21 21 23 24 26 28 29 30 32 33 33 34 34 34 34 35 35 34 33 32 31 30 29 29 28 26 25 25 24 24 23 22 21 19 17 16 15 14 15 15 15 15 15
21 22 22 23 25 27 27 29 30 31 33 35 36 37 37 37 38 38 38 37 36 35 34 33 33 32 30 29 29 29 27 27 26 25 24 23 22 21 20 19 17 17 17
24 23 24 25 27 29 30 30 31 32 32 33 35 37 38 39 40 41 41 40 40 39 38 37 36 36 35 34 33 33 32 31 30 29 27 27 27 25 24 24 22 20 19
26 26 24 25 27 30 31 32 33 35 36 37 37 37 39 41 42 43 44 44 43 43 42 41 40 40 40 38 37 36 35 35 33 32 32 30 29 28 27 25 25 23 22
25 26 28 26 26 28 31 33 35 37 38 41 44 44 43 43 43 44 45 46 46 46 46 45 43 43 43 42 41 39 38 38 37 35 34 33 33 31 30 28 27 26 25
31 32 34 36 37 37 37 38 40 40 42 44 46 48 51 51 49 48 48 48 49 48 48 48 47 46 46 45 44 42 41 40 39 37 36 35 34 34 33 31 29 28 27
37 40 42 44 45 46 48 47 46 45 48 49 50 51 53 53 52 53 52 54 55 54 52 52 51 50 50 48 46 45 44 42 40 38 37 36 36 36 36 34 32 30 29
43 45 47 49 50 51 51 50 50 49 47 46 49 52 55 55 55 53 52 55 57 58 59 58 55 54 52 52 50 48 46 45 43 41 40 38 36 37 37 37 35 33 32
42 44 46 48 49 50 52 54 55 56 55 55 52 47 52 52 52 52 52 52 55 57 58 59 60 59 57 56 54 51 50 49 45 43 42 41 39 38 37 38 37 36 34
43 44 46 48 51 53 56 57 58 59 61 61 61 61 56 57 55 56 57 57 56 56 55 56 57 59 57 57 56 56 53 51 46 45 44 43 41 39 39 39 39 39 38
50 53 55 57 56 55 55 56 59 62 66 67 68 70 72 70 68 65 63 64 62 63 57 52 53 53 55 57 57 58 57 53 50 48 46 44 43 42 41 41 40 41 40
58 60 62 64 64 64 63 60 58 61 64 68 71 71 73 76 77 75 71 68 65 66 65 63 59 57 55 53 56 57 58 56 52 50 48 47 45 45 44 42 41 41 41
62 64 65 66 66 63 60 59 59 60 61 63 69 73 73 72 75 77 78 78 76 73 73 72 70 67 64 62 59 60 57 56 55 51 48 49 49 47 46 44 43 42 43
65 67 69 70 66 62 61 61 62 64 65 66 68 69 69 71 76 81 83 84 83 81 78 78 78 76 73 72 66 63 63 59 55 53 49 50 52 50 48 47 45 44 43

GFSSE_500_spd_042.txt.gz
Wind_Speed
4 5 4 5 6 6 7 8 9 9 10 10 11 11 11 10 10 10 11 12 12 12 12 13 12 11 13 13 13 13 13 13 12 11 10 8 7 4 2 2 2 4 6
6 6 7 7 7 8 8 8 8 10 10 11 10 10 10 9 8 8 8 8 10 11 10 10 9 8 9 9 9 10 11 12 13 13 12 11 10 9 7 6 2 1 2
9 9 10 10 10 11 10 9 10 10 11 12 11 11 11 10 9 8 7 7 6 7 7 7 6 4 4 5 5 6 6 7 7 9 9 9 8 7 7 9 7 5 4
12 13 13 14 13 14 14 14 14 12 13 13 13 13 13 12 11 10 9 8 7 6 6 5 4 3 2 1 0 1 2 2 3 4 5 6 6 5 5 6 9 8 8
14 14 15 17 17 17 17 17 16 16 16 16 16 15 14 14 13 12 11 10 9 9 8 8 6 6 5 4 4 4 4 3 3 3 1 2 3 3 3 4 6 8 8
14 15 16 18 19 20 20 20 20 19 19 18 18 17 16 16 15 15 14 12 12 12 11 10 10 9 9 7 6 7 8 8 8 7 7 5 4 2 1 1 1 2 3
15 16 17 17 18 21 22 23 23 23 23 22 21 20 19 19 18 17 17 16 16 15 14 13 13 12 11 11 10 8 9 9 8 8 9 9 8 7 4 3 2 2 2
12 13 15 14 15 18 21 23 25 26 27 27 27 26 25 23 22 21 20 20 19 19 19 18 17 15 15 14 14 12 11 11 10 9 8 9 10 10 9 7 6 5 5
14 14 15 16 16 16 17 19 22 25 27 29 30 30 30 30 29 27 26 24 23 23 22 22 21 20 20 18 17 16 14 14 13 12 11 10 10 10 11 11 11 10 8
12 13 15 16 17 18 19 19 20 20 23 26 29 31 33 33 33 32 31 30 29 27 26 26 25 25 23 22 20 20 19 16 16 15 14 13 12 11 11 11 12 12 13
15 16 17 18 19 20 21 21 22 23 24 24 25 27 30 32 34 35 35 34 33 32 31 29 29 29 28 27 25 23 23 22 20 18 17 16 15 14 13 13 12 12 13
20 20 21 22 21 22 23 23 24 26 27 27 28 28 29 30 31 33 34 35 36 36 35 35 33 33 32 31 31 29 28 26 25 23 21 19 18 18 17 16 14 14 14
20 21 22 24 24 24 24 25 25 26 27 29 30 31 32 33 33 34 34 34 35 36 37 38 38 37 37 37 36 34 33 32 30 29 27 25 24 23 21 21 20 18 17
19 20 21 22 24 25 26 27 28 29 29 30 31 32 34 36 37 38 38 37 37 37 38 39 40 41 40 40 41 40 39 37 36 35 33 31 29 28 27 27 25 24 23
17 18 19 21 23 24 25 27 29 31 32 33 34 35 36 37 38 40 42 42 42 42 41 41 42 43 43 43 43 44 44 42 40 39 38 37 35 33 31 29 28 27 27
20 22 23 24 26 29 31 32 33 36 37 39 40 42 43 43 44 44 44 44 46 47 47 47 45 45 46 46 46 46 46 46 45 43 41 41 39 37 35 33 31 30 29
24 26 27 28 30 31 34 36 37 39 41 43 45 47 49 51 52 52 52 53 51 48 49 51 52 53 52 51 50 50 49 48 48 48 46 43 43 41 39 36 35 33 32
26 27 29 30 32 33 35 37 39 40 40 42 44 47 49 51 53 54 55 57 58 60 58 52 53 56 57 58 57 55 53 52 51 50 49 47 45 44 42 40 38 36 35
25 26 27 30 32 34 36 38 40 42 43 45 47 48 49 51 53 55 57 59 58 58 59 63 59 60 59 60 61 60 58 56 54 53 52 50 47 45 44 42 40 39 38
28 29 31 33 35 36 37 39 41 43 45 48 50 51 53 55 57 59 61 63 65 66 64 56 61 65 64 64 64 63 63 61 60 57 55 53 51 49 46 45 43 40 40
33 35 37 40 43 45 47 49 52 54 55 54 52 52 54 58 61 64 67 69 70 71 73 65 61 64 63 67 66 66 66 64 63 61 59 58 56 54 52 49 47 44 42
39 40 43 46 48 51 53 55 57 59 61 63 65 67 68 67 65 63 64 69 72 73 74 75 74 70 69 69 67 65 64 65 64 58 59 60 59 56 55 53 50 47 45
43 46 50 52 53 55 57 58 60 62 65 67 68 70 71 72 72 73 72 70 68 71 76 73 74 76 76 72 64 69 67 65 59 56 55 56 59 60 57 55 53 51 48
49 50 52 53 56 58 60 62 64 67 69 71 72 71 71 71 71 71 74 77 78 79 78 75 81 78 74 78 79 68 64 60 66 59 54 55 54 57 58 57 55 53 51
52 54 54 56 58 61 63 66 67 69 72 74 75 75 74 74 77 80 82 80 78 78 81 82 80 81 84 74 75 78 70 69 68 62 59 51 50 49 54 57 56 54 53
55 57 58 60 62 65 66 67 70 73 75 75 74 74 78 82 82 77 76 76 75 75 76 80 81 77 75 77 76 73 74 72 71 67 66 54 53 51 52 51 53 54 54

GFSSE_500_spd_045.txt.gz
Wind_Speed
5 5 7 8 9 10 10 10 10 11 11 12 12 12 12 12 11 11 11 11 11 12 14 14 12 11 11 11 10 11 11 11 10 8 7 5 3 3 3 4 5 5 6
9 9 9 10 11 12 13 14 13 13 12 12 12 12 13 13 11 11 10 9 10 10 11 11 11 9 9 8 7 7 7 8 8 8 7 7 7 6 6 5 4 3 2
12 12 13 13 14 15 15 15 15 15 14 14 15 14 13 13 12 12 10 11 9 9 9 9 9 8 8 7 6 5 6 6 5 6 6 6 7 6 6 6 6 4 3
15 15 15 16 16 17 18 18 17 17 16 16 16 16 16 15 15 14 14 12 11 11 9 9 9 9 8 8 8 7 7 6 6 6 5 6 6 6 6 6 7 6 5
15 16 17 17 19 19 20 20 20 19 19 19 19 20 19 19 18 17 16 15 15 13 13 12 11 10 10 8 10 10 10 10 10 9 8 7 7 6 5 5 5 5 6
15 16 17 18 19 20 21 22 22 23 23 23 23 23 23 23 23 21 20 18 17 16 16 15 14 13 12 11 10 11 12 12 13 14 13 11 9 8 6 5 4 3 1
15 16 17 17 18 18 19 20 21 22 24 25 25 25 25 25 25 25 25 24 23 21 19 18 17 16 15 15 14 13 13 13 13 13 13 13 12 11 10 7 6 6 5
16 17 17 17 18 18 18 19 20 22 23 24 25 26 26 26 26 26 26 26 26 26 25 24 22 21 20 18 17 17 16 16 15 14 13 12 12 12 12 12 10 8 8
15 17 18 18 19 19 20 21 21 22 22 23 23 24 25 27 28 29 30 29 28 28 28 27 27 27 24 22 22 21 20 19 18 17 16 15 13 12 13 14 14 14 12
14 15 16 17 17 18 20 21 23 24 24 24 24 24 25 26 27 28 29 30 31 30 30 30 30 29 29 27 25 25 24 24 21 20 18 18 17 15 14 14 14 15 15
17 18 19 20 20 21 22 22 23 24 24 25 26 27 28 28 29 29 29 29 29 30 30 31 32 31 31 31 30 29 28 27 27 25 23 21 20 18 17 16 15 15 15
22 23 24 23 22 21 21 21 21 22 22 23 25 26 27 28 29 31 32 32 32 32 32 31 32 33 33 34 33 33 33 31 30 30 27 27 25 22 20 20 18 18 17
21 21 20 21 21 20 21 21 21 22 22 23 23 24 26 28 30 31 32 34 35 36 36 36 35 34 36 36 36 36 35 35 34 33 32 32 30 29 26 26 23 22 21
18 18 18 19 20 21 21 23 24 25 27 28 28 28 28 29 30 32 33 34 35 36 38 40 41 40 39 39 39 40 39 38 38 37 36 36 36 34 32 30 29 28 27
19 21 23 23 24 24 24 26 27 29 30 32 34 35 36 36 35 34 36 37 39 40 41 42 43 44 45 45 44 43 43 42 41 41 40 39 38 38 37 35 34 31 31
23 24 24 25 26 27 28 30 31 32 33 34 36 39 40 42 42 42 44 43 42 43 46 47 48 48 48 49 49 49 49 48 46 45 44 42 42 40 40 38 37 36 34
23 23 24 26 27 29 30 32 33 35 36 38 39 39 41 43 44 45 46 48 49 49 46 48 51 53 54 53 53 54 54 53 52 51 49 47 46 45 43 42 40 38 36
22 22 25 27 28 29 31 32 34 36 38 40 41 43 44 46 47 49 50 51 52 53 55 57 55 53 55 58 59 58 57 57 57 56 54 52 50 49 47 45 44 42 40
23 25 27 29 31 33 34 36 38 40 42 43 45 47 49 49 51 53 54 55 57 57 58 59 61 64 64 60 60 62 62 62 61 60 59 56 55 53 51 50 47 46 43
28 30 31 33 34 35 37 39 41 43 45 47 49 52 54 55 56 58 59 60 61 62 65 66 66 67 69 70 69 65 65 65 64 64 62 61 59 57 55 53 50 48 47
32 35 37 39 40 41 44 45 47 49 51 53 54 55 57 58 58 59 59 62 66 68 69 69 72 72 72 72 73 75 70 64 67 66 65 65 61 60 59 57 53 51 49
37 40 42 43 46 48 49 52 54 56 57 59 61 63 64 66 67 68 69 69 69 67 66 68 71 73 75 77 78 76 76 75 70 66 65 65 65 64 62 61 59 57 53
42 44 47 49 51 53 55 56 57 58 59 62 64 66 67 67 69 72 74 75 74 73 72 71 71 70 70 73 77 79 79 79 76 72 68 67 65 66 64 62 61 60 59
48 50 52 54 56 57 59 61 61 62 64 66 68 69 70 71 72 73 73 73 72 73 75 77 78 79 79 77 77 78 77 78 79 78 78 67 64 69 66 60 60 61 60
53 56 57 58 60 61 62 64 65 68 70 71 71 72 73 74 73 73 74 75 78 80 80 79 77 77 77 76 79 80 78 76 77 77 77 74 66 59 70 64 57 57 60
58 60 61 62 62 63 65 67 70 71 73 74 75 75 75 76 76 76 75 74 74 73 73 74 76 78 78 77 76 76 77 76 74 75 75 77 78 68 53 58 53 53 55